Météo par heure à Juticalpa

Ce jour, 20 Juin, Dimanche

Heure Température Précipitation Vent Pression Humidité
00:00 +25°C° 0 mm 1 m/s 728 mmHg 94%
01:00 +24°C° 0 mm 1 m/s 728 mmHg 95%
02:00 +22°C° 0 mm 0 m/s 728 mmHg 96%
03:00 +22°C° 0 mm 0 m/s 728 mmHg 97%
04:00 +22°C° 0 mm 0 m/s 728 mmHg 97%
05:00 +22°C° 0 mm 0 m/s 728 mmHg 96%
06:00 +22°C° 0 mm 0 m/s 729 mmHg 95%
07:00 +26°C° 0.1 mm 1 m/s 729 mmHg 86%
08:00 +28°C° 0.1 mm 1 m/s 729 mmHg 77%
09:00 +30°C° 0.1 mm 2 m/s 729 mmHg 68%
10:00 +32°C° 0.3 mm 2 m/s 729 mmHg 61%
11:00 +34°C° 0.3 mm 2 m/s 729 mmHg 55%
12:00 +35°C° 0.3 mm 3 m/s 728 mmHg 48%
13:00 +36°C° 0 mm 3 m/s 727 mmHg 45%
14:00 +36°C° 0 mm 3 m/s 727 mmHg 43%
15:00 +36°C° 0 mm 3 m/s 726 mmHg 40%
16:00 +35°C° 0 mm 3 m/s 726 mmHg 45%
17:00 +32°C° 0 mm 2 m/s 727 mmHg 50%
18:00 +30°C° 0 mm 2 m/s 727 mmHg 55%
19:00 +29°C° 0 mm 2 m/s 727 mmHg 62%
20:00 +28°C° 0 mm 2 m/s 728 mmHg 68%
21:00 +26°C° 0 mm 2 m/s 728 mmHg 74%
22:00 +26°C° 0 mm 1 m/s 728 mmHg 79%
23:00 +25°C° 0 mm 1 m/s 728 mmHg 83%

Demain, 21 Juin, Lundi

Heure Température Précipitation Vent Pression Humidité
00:00 +24°C° 0 mm 1 m/s 728 mmHg 88%
01:00 +22°C° 0 mm 0 m/s 728 mmHg 91%
02:00 +21°C° 0 mm 0 m/s 728 mmHg 93%
03:00 +21°C° 0 mm 0 m/s 728 mmHg 96%
04:00 +21°C° 0 mm 0 m/s 728 mmHg 95%
05:00 +22°C° 0 mm 0 m/s 728 mmHg 93%
06:00 +22°C° 0 mm 0 m/s 729 mmHg 92%
07:00 +24°C° 0 mm 0 m/s 729 mmHg 84%
08:00 +27°C° 0 mm 1 m/s 729 mmHg 77%
09:00 +29°C° 0 mm 1 m/s 729 mmHg 69%
10:00 +30°C° 0 mm 1 m/s 729 mmHg 61%
11:00 +32°C° 0 mm 2 m/s 728 mmHg 54%
12:00 +35°C° 0 mm 2 m/s 728 mmHg 46%
13:00 +35°C° 0 mm 2 m/s 727 mmHg 46%
14:00 +35°C° 0 mm 2 m/s 727 mmHg 45%
15:00 +35°C° 0 mm 2 m/s 726 mmHg 45%
16:00 +34°C° 0 mm 2 m/s 726 mmHg 49%
17:00 +31°C° 0 mm 2 m/s 726 mmHg 54%
18:00 +30°C° 0 mm 1 m/s 726 mmHg 58%
19:00 +28°C° 0.1 mm 1 m/s 726 mmHg 69%
20:00 +27°C° 0.1 mm 1 m/s 727 mmHg 79%
21:00 +25°C° 0.1 mm 1 m/s 728 mmHg 90%
22:00 +25°C° 0.1 mm 1 m/s 728 mmHg 92%
23:00 +24°C° 0.1 mm 1 m/s 728 mmHg 94%

Après-demain, 22 Juin, Mardi

Heure Température Précipitation Vent Pression Humidité
00:00 +22°C° 0.1 mm 0 m/s 728 mmHg 97%
01:00 +22°C° 0 mm 0 m/s 727 mmHg 97%
02:00 +21°C° 0 mm 0 m/s 727 mmHg 98%
03:00 +21°C° 0 mm 0 m/s 727 mmHg 98%
04:00 +22°C° 0 mm 0 m/s 727 mmHg 97%
05:00 +22°C° 0 mm 0 m/s 727 mmHg 95%
06:00 +23°C° 0 mm 0 m/s 727 mmHg 94%
07:00 +26°C° 0.1 mm 1 m/s 728 mmHg 84%
08:00 +28°C° 0.1 mm 1 m/s 728 mmHg 75%
09:00 +30°C° 0.1 mm 2 m/s 729 mmHg 65%
10:00 +33°C° 0.1 mm 3 m/s 728 mmHg 57%
11:00 +34°C° 0.1 mm 3 m/s 728 mmHg 49%
12:00 +36°C° 0.1 mm 4 m/s 728 mmHg 41%
13:00 +36°C° 0 mm 4 m/s 727 mmHg 42%
14:00 +35°C° 0 mm 4 m/s 726 mmHg 44%
15:00 +35°C° 0 mm 4 m/s 726 mmHg 45%
16:00 +33°C° 0 mm 3 m/s 726 mmHg 54%
17:00 +30°C° 0 mm 3 m/s 726 mmHg 63%
18:00 +28°C° 0 mm 3 m/s 726 mmHg 71%
19:00 +27°C° 0.3 mm 2 m/s 727 mmHg 80%
20:00 +26°C° 0.3 mm 2 m/s 727 mmHg 88%
21:00 +24°C° 0.3 mm 1 m/s 728 mmHg 96%
22:00 +24°C° 0.1 mm 1 m/s 728 mmHg 96%
23:00 +24°C° 0.1 mm 1 m/s 728 mmHg 97%

23 Juin, Mercredi

Heure Température Précipitation Vent Pression Humidité
00:00 +22°C° 0.1 mm 0 m/s 728 mmHg 97%
01:00 +22°C° 0.1 mm 0 m/s 728 mmHg 97%
02:00 +22°C° 0.1 mm 0 m/s 728 mmHg 98%
03:00 +21°C° 0.1 mm 0 m/s 727 mmHg 98%
04:00 +22°C° 0 mm 0 m/s 728 mmHg 97%
05:00 +22°C° 0 mm 0 m/s 728 mmHg 96%
06:00 +22°C° 0 mm 0 m/s 728 mmHg 95%
07:00 +26°C° 0.2 mm 1 m/s 728 mmHg 88%
08:00 +27°C° 0.2 mm 1 m/s 729 mmHg 80%
09:00 +29°C° 0.2 mm 2 m/s 729 mmHg 73%
10:00 +30°C° 0.5 mm 2 m/s 729 mmHg 68%
11:00 +31°C° 0.5 mm 3 m/s 728 mmHg 62%
12:00 +33°C° 0.5 mm 3 m/s 728 mmHg 57%
13:00 +31°C° 0.2 mm 3 m/s 728 mmHg 59%
14:00 +31°C° 0.2 mm 3 m/s 727 mmHg 60%
15:00 +30°C° 0.2 mm 3 m/s 727 mmHg 62%
16:00 +29°C° 0 mm 3 m/s 727 mmHg 65%
17:00 +28°C° 0 mm 2 m/s 727 mmHg 69%
18:00 +27°C° 0 mm 2 m/s 727 mmHg 72%
19:00 +26°C° 0 mm 1 m/s 728 mmHg 78%
20:00 +25°C° 0 mm 1 m/s 728 mmHg 85%
21:00 +21°C° 0 mm 0 m/s 728 mmHg 91%
22:00 +21°C° 0 mm 0 m/s 728 mmHg 92%
23:00 +21°C° 0 mm 0 m/s 728 mmHg 93%

24 Juin, Jeudi

Heure Température Précipitation Vent Pression Humidité
00:00 +20°C° 0 mm 0 m/s 728 mmHg 94%
01:00 +20°C° 0 mm 0 m/s 728 mmHg 95%
02:00 +20°C° 0 mm 0 m/s 728 mmHg 96%
03:00 +20°C° 0 mm 0 m/s 728 mmHg 96%
04:00 +20°C° 0 mm 0 m/s 728 mmHg 95%
05:00 +21°C° 0 mm 0 m/s 728 mmHg 93%
06:00 +21°C° 0 mm 0 m/s 729 mmHg 92%
07:00 +23°C° 0 mm 0 m/s 729 mmHg 79%
08:00 +25°C° 0 mm 0 m/s 729 mmHg 67%
09:00 +29°C° 0 mm 1 m/s 729 mmHg 55%
10:00 +31°C° 0 mm 1 m/s 729 mmHg 49%
11:00 +33°C° 0 mm 1 m/s 728 mmHg 44%
12:00 +35°C° 0 mm 2 m/s 728 mmHg 39%
13:00 +35°C° 0 mm 2 m/s 727 mmHg 38%
14:00 +35°C° 0 mm 3 m/s 726 mmHg 37%
15:00 +36°C° 0 mm 3 m/s 726 mmHg 36%
16:00 +34°C° 0.1 mm 3 m/s 726 mmHg 44%
17:00 +31°C° 0.1 mm 2 m/s 726 mmHg 52%
18:00 +29°C° 0.1 mm 2 m/s 726 mmHg 60%
19:00 +27°C° 1.8 mm 2 m/s 727 mmHg 71%
20:00 +25°C° 1.8 mm 1 m/s 727 mmHg 82%
21:00 +24°C° 1.8 mm 1 m/s 728 mmHg 93%
22:00 +24°C° 0.8 mm 1 m/s 728 mmHg 94%
23:00 +22°C° 0.8 mm 0 m/s 728 mmHg 94%

25 Juin, Vendredi

Heure Température Précipitation Vent Pression Humidité
00:00 +22°C° 0.8 mm 0 m/s 728 mmHg 95%
01:00 +21°C° 0 mm 0 m/s 727 mmHg 95%
02:00 +21°C° 0 mm 0 m/s 727 mmHg 96%
03:00 +21°C° 0 mm 0 m/s 727 mmHg 96%
04:00 +21°C° 0 mm 0 m/s 727 mmHg 96%
05:00 +21°C° 0 mm 0 m/s 727 mmHg 95%
06:00 +21°C° 0 mm 0 m/s 727 mmHg 95%
07:00 +23°C° 0 mm 0 m/s 727 mmHg 86%
08:00 +27°C° 0 mm 1 m/s 728 mmHg 76%
09:00 +29°C° 0 mm 1 m/s 728 mmHg 67%
10:00 +31°C° 0 mm 1 m/s 728 mmHg 59%
11:00 +32°C° 0 mm 2 m/s 727 mmHg 51%
12:00 +35°C° 0 mm 2 m/s 727 mmHg 43%
13:00 +35°C° 0 mm 2 m/s 726 mmHg 41%
14:00 +35°C° 0 mm 2 m/s 725 mmHg 40%
15:00 +35°C° 0 mm 2 m/s 725 mmHg 38%
16:00 +34°C° 0 mm 2 m/s 725 mmHg 43%
17:00 +31°C° 0 mm 2 m/s 725 mmHg 48%
18:00 +30°C° 0 mm 2 m/s 725 mmHg 53%
19:00 +28°C° 0.1 mm 2 m/s 726 mmHg 62%
20:00 +27°C° 0.1 mm 2 m/s 726 mmHg 71%
21:00 +25°C° 0.1 mm 1 m/s 727 mmHg 79%
22:00 +24°C° 0.1 mm 1 m/s 727 mmHg 83%
23:00 +24°C° 0.1 mm 1 m/s 727 mmHg 87%
Voir plus

Nous avons besoin de votre consentement

Meteoprog et ses fournisseurs de services peuvent stocker et accéder à des données personnelles telles que des cookies, des identifiants d'appareils ou d'autres technologies similaires sur votre appareil et traiter ces données pour personnaliser le contenu et les publicités, ainsi que pour fournir des fonctionnalités de médias sociaux et analyser le trafic.

  • Stocker et/ou accéder à des informations sur votre appareil

    Des cookies, des identifiants d'appareils ou d'autres informations peuvent être stockés ou accessibles sur votre appareil aux fins indiquées ci-dessus.

  • Annonces et contenus personnalisés, mesure des annonces et des contenus, connaissance de l'audience et développement de produits

    Les annonces et le contenu peuvent être personnalisés en fonction d'un profil. D'autres données peuvent être ajoutées pour mieux personnaliser les annonces et le contenu. Les performances des publicités et du contenu peuvent être mesurées. Il est possible d'obtenir des informations sur le public qui a vu les publicités et le contenu. Ces données peuvent être utilisées pour développer ou améliorer l'expérience de l'utilisateur, les systèmes et les logiciels.

En cliquant sur "J'accepte", vous autorisez l'utilisation de cookies, des identifiants d'appareils, des balises web ou d'autres technologies similaires. Vos paramètres peuvent être modifiés dans le navigateur de votre appareil.

Dans certains cas, des intérêts légitimes peuvent être invoqués plutôt qu'un consentement. Vous pouvez en savoir plus à ce sujet dans notre Politique de confidentialité et de cookies.